When you browse on this site, cookies collect data to enhance your experience and personalize the content and advertising you see.
Visit our Privacy Policy to learn more. By continuing to use the site, you agree to this use of cookies and data.
  • En España
  • Lista de países
  • Para 7 días
  • Temperatura del agua
  • El tiempo en el mapa
  • Informadores
  • user-avatar
    Iniciar sesión

    Tiempo cada hora Thimphu

    Hoy, 2 Junio, Martes

    Tiempo Temperatura Precipitaciones Viento Presión Humedad
    00:00 +9°C° 0.2 mm 1 mps 524 mmHg 95%
    01:00 +9°C° 0.1 mm 1 mps 523 mmHg 95%
    02:00 +9°C° 0.1 mm 1 mps 523 mmHg 95%
    03:00 +7°C° 0.1 mm 0 mps 522 mmHg 95%
    04:00 +8°C° 0 mm 0 mps 523 mmHg 94%
    05:00 +8°C° 0 mm 0 mps 523 mmHg 93%
    06:00 +8°C° 0 mm 0 mps 523 mmHg 92%
    07:00 +11°C° 0.1 mm 1 mps 524 mmHg 86%
    08:00 +12°C° 0.1 mm 1 mps 525 mmHg 79%
    09:00 +14°C° 0.1 mm 1 mps 527 mmHg 73%
    10:00 +15°C° 0.2 mm 2 mps 527 mmHg 68%
    11:00 +16°C° 0.2 mm 2 mps 527 mmHg 64%
    12:00 +17°C° 0.2 mm 2 mps 528 mmHg 59%
    13:00 +16°C° 0.5 mm 2 mps 527 mmHg 64%
    14:00 +16°C° 0.5 mm 2 mps 526 mmHg 69%
    15:00 +15°C° 0.5 mm 2 mps 525 mmHg 74%
    16:00 +14°C° 0.4 mm 2 mps 524 mmHg 78%
    17:00 +13°C° 0.4 mm 2 mps 524 mmHg 82%
    18:00 +12°C° 0.4 mm 1 mps 523 mmHg 85%
    19:00 +11°C° 0.1 mm 1 mps 523 mmHg 89%
    20:00 +10°C° 0.1 mm 1 mps 522 mmHg 92%
    21:00 +8°C° 0.1 mm 1 mps 522 mmHg 95%
    22:00 +8°C° 0.1 mm 1 mps 522 mmHg 95%
    23:00 +8°C° 0.1 mm 1 mps 522 mmHg 95%

    Mañana, 3 Junio, Miércoles

    Tiempo Temperatura Precipitaciones Viento Presión Humedad
    00:00 +8°C° 0.1 mm 1 mps 523 mmHg 94%
    01:00 +8°C° 0 mm 1 mps 522 mmHg 94%
    02:00 +8°C° 0 mm 1 mps 522 mmHg 93%
    03:00 +8°C° 0 mm 1 mps 522 mmHg 93%
    04:00 +8°C° 0 mm 1 mps 522 mmHg 91%
    05:00 +8°C° 0 mm 1 mps 522 mmHg 89%
    06:00 +8°C° 0 mm 0 mps 523 mmHg 88%
    07:00 +11°C° 0 mm 1 mps 524 mmHg 80%
    08:00 +13°C° 0 mm 1 mps 526 mmHg 72%
    09:00 +15°C° 0 mm 2 mps 527 mmHg 64%
    10:00 +16°C° 0.2 mm 2 mps 527 mmHg 63%
    11:00 +16°C° 0.2 mm 2 mps 527 mmHg 62%
    12:00 +17°C° 0.2 mm 2 mps 527 mmHg 62%
    13:00 +16°C° 0.4 mm 2 mps 526 mmHg 66%
    14:00 +16°C° 0.4 mm 2 mps 526 mmHg 70%
    15:00 +15°C° 0.4 mm 2 mps 525 mmHg 75%
    16:00 +14°C° 0.2 mm 2 mps 524 mmHg 79%
    17:00 +14°C° 0.2 mm 2 mps 524 mmHg 82%
    18:00 +13°C° 0.2 mm 2 mps 523 mmHg 86%
    19:00 +12°C° 0.1 mm 1 mps 523 mmHg 90%
    20:00 +11°C° 0.1 mm 1 mps 523 mmHg 93%
    21:00 +9°C° 0.1 mm 1 mps 522 mmHg 96%
    22:00 +9°C° 0 mm 1 mps 522 mmHg 95%
    23:00 +9°C° 0 mm 1 mps 522 mmHg 95%

    Pasado mañana, 4 Junio, Jueves

    Tiempo Temperatura Precipitaciones Viento Presión Humedad
    00:00 +9°C° 0 mm 1 mps 522 mmHg 94%
    01:00 +9°C° 0 mm 1 mps 522 mmHg 94%
    02:00 +8°C° 0 mm 0 mps 522 mmHg 94%
    03:00 +8°C° 0 mm 0 mps 522 mmHg 93%
    04:00 +8°C° 0 mm 0 mps 522 mmHg 91%
    05:00 +9°C° 0 mm 0 mps 523 mmHg 89%
    06:00 +9°C° 0 mm 0 mps 523 mmHg 87%
    07:00 +11°C° 0 mm 1 mps 524 mmHg 83%
    08:00 +12°C° 0 mm 1 mps 525 mmHg 80%
    09:00 +14°C° 0 mm 1 mps 526 mmHg 76%
    10:00 +14°C° 0.2 mm 1 mps 526 mmHg 76%
    11:00 +14°C° 0.2 mm 1 mps 526 mmHg 76%
    12:00 +15°C° 0.2 mm 1 mps 525 mmHg 76%
    13:00 +15°C° 0.4 mm 1 mps 525 mmHg 79%
    14:00 +14°C° 0.4 mm 1 mps 525 mmHg 82%
    15:00 +14°C° 0.4 mm 2 mps 524 mmHg 84%
    16:00 +14°C° 0.3 mm 1 mps 524 mmHg 88%
    17:00 +13°C° 0.3 mm 1 mps 524 mmHg 91%
    18:00 +12°C° 0.3 mm 1 mps 523 mmHg 94%
    19:00 +12°C° 0.1 mm 1 mps 523 mmHg 95%
    20:00 +11°C° 0.1 mm 1 mps 524 mmHg 95%
    21:00 +11°C° 0.1 mm 1 mps 524 mmHg 96%
    22:00 +11°C° 0.1 mm 1 mps 524 mmHg 96%
    23:00 +11°C° 0.1 mm 1 mps 523 mmHg 97%

    5 Junio, Viernes

    Tiempo Temperatura Precipitaciones Viento Presión Humedad
    00:00 +11°C° 0.1 mm 1 mps 523 mmHg 97%
    01:00 +10°C° 0.2 mm 1 mps 523 mmHg 97%
    02:00 +10°C° 0.2 mm 1 mps 523 mmHg 98%
    03:00 +10°C° 0.2 mm 1 mps 523 mmHg 98%
    04:00 +10°C° 0.2 mm 1 mps 523 mmHg 98%
    05:00 +9°C° 0.2 mm 0 mps 523 mmHg 97%
    06:00 +10°C° 0.2 mm 0 mps 523 mmHg 97%
    07:00 +12°C° 0.1 mm 1 mps 524 mmHg 93%
    08:00 +13°C° 0.1 mm 1 mps 525 mmHg 89%
    09:00 +14°C° 0.1 mm 1 mps 526 mmHg 85%
    10:00 +15°C° 0.5 mm 1 mps 526 mmHg 83%
    11:00 +15°C° 0.5 mm 2 mps 526 mmHg 82%
    12:00 +16°C° 0.5 mm 2 mps 526 mmHg 81%
    13:00 +16°C° 0.6 mm 2 mps 526 mmHg 80%
    14:00 +16°C° 0.6 mm 2 mps 526 mmHg 79%
    15:00 +16°C° 0.6 mm 2 mps 525 mmHg 78%
    16:00 +16°C° 0.5 mm 2 mps 525 mmHg 81%
    17:00 +15°C° 0.5 mm 2 mps 524 mmHg 83%
    18:00 +14°C° 0.5 mm 1 mps 524 mmHg 86%
    19:00 +13°C° 0.1 mm 1 mps 523 mmHg 89%
    20:00 +11°C° 0.1 mm 1 mps 523 mmHg 92%
    21:00 +10°C° 0.1 mm 1 mps 523 mmHg 96%
    22:00 +10°C° 0.1 mm 1 mps 523 mmHg 95%
    23:00 +10°C° 0.1 mm 1 mps 523 mmHg 95%

    6 Junio, Sábado

    Tiempo Temperatura Precipitaciones Viento Presión Humedad
    00:00 +10°C° 0.1 mm 1 mps 523 mmHg 94%
    01:00 +10°C° 0 mm 1 mps 523 mmHg 94%
    02:00 +9°C° 0 mm 1 mps 522 mmHg 93%
    03:00 +9°C° 0 mm 1 mps 522 mmHg 93%
    04:00 +9°C° 0 mm 1 mps 522 mmHg 92%
    05:00 +10°C° 0 mm 1 mps 523 mmHg 90%
    06:00 +10°C° 0 mm 1 mps 523 mmHg 89%
    07:00 +12°C° 0 mm 1 mps 524 mmHg 81%
    08:00 +15°C° 0 mm 1 mps 526 mmHg 72%
    09:00 +17°C° 0 mm 2 mps 527 mmHg 64%
    10:00 +18°C° 0.2 mm 2 mps 528 mmHg 63%
    11:00 +19°C° 0.2 mm 2 mps 528 mmHg 62%
    12:00 +19°C° 0.2 mm 2 mps 528 mmHg 62%
    13:00 +19°C° 0.4 mm 2 mps 527 mmHg 65%
    14:00 +18°C° 0.4 mm 2 mps 526 mmHg 68%
    15:00 +18°C° 0.4 mm 2 mps 526 mmHg 72%
    16:00 +17°C° 0.3 mm 2 mps 525 mmHg 77%
    17:00 +16°C° 0.3 mm 2 mps 524 mmHg 82%
    18:00 +15°C° 0.3 mm 2 mps 523 mmHg 87%
    19:00 +14°C° 0.2 mm 1 mps 523 mmHg 90%
    20:00 +12°C° 0.2 mm 1 mps 523 mmHg 94%
    21:00 +11°C° 0.2 mm 1 mps 523 mmHg 97%
    22:00 +11°C° 0.1 mm 1 mps 523 mmHg 96%
    23:00 +11°C° 0.1 mm 1 mps 522 mmHg 96%

    7 Junio, Domingo

    Tiempo Temperatura Precipitaciones Viento Presión Humedad
    00:00 +10°C° 0.1 mm 1 mps 522 mmHg 95%
    01:00 +10°C° 0 mm 1 mps 522 mmHg 95%
    02:00 +10°C° 0 mm 1 mps 522 mmHg 94%
    03:00 +10°C° 0 mm 1 mps 522 mmHg 94%
    04:00 +10°C° 0 mm 1 mps 522 mmHg 92%
    05:00 +10°C° 0 mm 1 mps 522 mmHg 90%
    06:00 +11°C° 0 mm 1 mps 523 mmHg 88%
    07:00 +13°C° 0 mm 1 mps 524 mmHg 79%
    08:00 +16°C° 0 mm 1 mps 526 mmHg 71%
    09:00 +19°C° 0 mm 1 mps 527 mmHg 62%
    10:00 +19°C° 0.2 mm 2 mps 527 mmHg 62%
    11:00 +19°C° 0.2 mm 2 mps 527 mmHg 63%
    12:00 +20°C° 0.2 mm 3 mps 527 mmHg 63%
    13:00 +20°C° 0.7 mm 2 mps 526 mmHg 66%
    14:00 +19°C° 0.7 mm 2 mps 526 mmHg 68%
    15:00 +19°C° 0.7 mm 2 mps 525 mmHg 71%
    16:00 +18°C° 0.5 mm 2 mps 524 mmHg 76%
    17:00 +17°C° 0.5 mm 2 mps 524 mmHg 81%
    18:00 +16°C° 0.5 mm 2 mps 523 mmHg 85%
    19:00 +15°C° 0.2 mm 1 mps 523 mmHg 89%
    20:00 +13°C° 0.2 mm 1 mps 523 mmHg 93%
    21:00 +12°C° 0.2 mm 1 mps 522 mmHg 97%
    22:00 +12°C° 0.1 mm 1 mps 522 mmHg 96%
    23:00 +11°C° 0.1 mm 1 mps 522 mmHg 96%
    Mostrar más